{"data":{"norad_id":56428,"intl_designator":"2023-061BG","name":"STARLINK-6238","alt_names":[],"object_type":"PAYLOAD","status":"ACTIVE","operator":null,"country":"US","launch_date":"2023-05-04","launch_site_code":"AFETR","launch_vehicle":null,"mission":null,"orbit_class":"UNKNOWN","rcs_meters":null,"size_class":null,"mass_kg":null,"dimensions":null,"purposes":["comms"],"wikipedia_slug":null,"has_3d_model":false,"image_url":null,"decayed_at":null,"tle_current":{"epoch":"2026-05-25T03:52:26.179104Z","epoch_age_seconds":57629,"freshness":"FRESH","line1":"1 56428U 23061BG  26145.16141411  .00000538  00000+0  29733-4 0  9997","line2":"2 56428  43.0052 107.8004 0001696 298.4007  61.6674 15.26742572168650","mean_motion":15.26742572,"eccentricity":0.0001696,"inclination_deg":43.0052,"raan_deg":107.8004,"arg_perigee_deg":298.4007,"mean_anomaly_deg":61.6674,"bstar":2.9733e-5,"rev_number":16865,"period_min":94.318454624189,"perigee_km":484.39372020387,"apogee_km":486.721885481,"semimajor_km":6863.6948028424,"source":"CELESTRAK","updated_at":"2026-05-25T13:38:18.065232Z"}}}